Location: Barcelona
(41.3830°N, 2.1830°E)
Time: 10:53:06
(UTC+01:00)

ISS - Pass Details

Date: 22 October 2020
Orbit: 417 x 420 km, 51.6° (Epoch: 29 October)

Event Time Altitude Azimuth Distance (km) Brightness Sun altitude
Rises 07:34:55 0° 223° (SW) 2,346 -0.3 -7.5°
Reaches altitude 10° 07:37:01 10° 219° (SW) 1,487 -1.3 -7.2°
Maximum altitude 07:40:18 56° 140° (SE) 501 -3.0 -6.5°
Drops below altitude 10° 07:43:35 10° 62° (ENE) 1,496 -0.1 -5.9°
Sets 07:45:43 0° 58° (ENE) 2,363 0.9 -5.5°
